Skip Page Navigation
NASA JPL Caltech
NASA Logo - Jet Propulsion Laboratory + View the NASA Portal
+ Center for Near-Earth Object Studies
JPL Home Earth Solar System Stars & Galaxies Technology
JPL Solar System Dynamics
BODIES ORBITS EPHEMERIDES TOOLS PHYSICAL DATA DISCOVERY FAQ SITE MAP
IMPORTANT: The SSD Announcement email list is now available. Major changes are coming in the near future, including possible hostname and/or URL changes. To be notified of such changes, subscribe to this email list.

Please visit this page for more details.


JPL Small-Body Database Browser
Search: [ help ]  
185384 (2006 WL6)
Classification: Main-belt Asteroid          SPK-ID: 2185384
Ephemeris | Orbit Diagram | Orbital Elements | Mission Design | Physical Parameters | Discovery Circumstances | Close-Approach Data ]

[ show orbit diagram ]
Orbital Elements at Epoch 2459000.5 (2020-May-31.0) TDB
Reference: JPL 12 (heliocentric ecliptic J2000)
 Element Value Uncertainty (1-sigma)   Units 
e .07141267825156483 8.0839e-08  
a 2.855204215378318 3.2423e-08 au
q 2.651306435402995 2.2772e-07 au
i 10.35359718047543 8.5385e-06 deg
node 214.3095908094471 3.8444e-05 deg
peri 5.206734531096405 6.6497e-05 deg
M 134.6332855355288 5.4322e-05 deg
tp 2458341.471593630555
(2018-Aug-10.97159363)
0.00026718 TDB
period 1762.195918708316
4.82
3.0017e-05
8.218e-08
d
yr
n .2042905650717197 3.4798e-09 deg/d
Q 3.059101995353641 3.4738e-08 au
  Orbit Determination Parameters
   # obs. used (total)      149  
   data-arc span      6509 days (17.82 yr)  
   first obs. used      2001-10-25  
   last obs. used      2019-08-21  
   planetary ephem.      DE431  
   SB-pert. ephem.      SB431-N16  
   condition code      0  
   norm. resid. RMS      .63857  
   source      ORB  
   producer      Otto Matic  
   solution date      2019-Sep-24 03:51:30  

Additional Information
 Earth MOID = 1.64384 au 
 Jupiter MOID = 1.9134 au 
 T_jup = 3.276 
[ show covariance matrix ]

Ephemeris | Orbit Diagram | Orbital Elements | Mission Design | Physical Parameters | Discovery Circumstances | Close-Approach Data ]

Physical Parameter Table
Parameter Symbol Value Units Sigma Reference Notes
absolute magnitude H 16.1   n/a MPO433216  

185384 (2006 WL6)          Discovered 2006-Nov-16 by Spacewatch at Kitt Peak
Reference: 20080420/Numbers.arcLast Updated: 2008-04-23

[ hide close-approach data ]
Close-Approach Data   ...sorted by Date/Time (TDB)
Date/Time (TDB) Time Uncertainty
(days_HH:MM)
Body Nominal Distance (au) Minimum Distance (au) Maximum Distance (au) V-relative (km/s) V-infinity (km/s) JD (TDB) Time Uncertainty (minutes) Semi-major axis (km) Semi-minor axis (km) range-LOV angle (deg) N-sigma BP Orbit Ref. Reference Modified
1904-Dec-03 16:07 00:05 Jupiter 1.91388724963193 1.91388651993886 1.91388797932718 3.95365807693443 3.84008841681012 2416818.171253697 5.1352489277531 448.547762303571 31.7825666326469 89.5700829793957 1824127.48398522 T 12 CATAB v2.0f-lin.ifort 2019-Sep-24 03:51:31 2019-Sep-24 03:51
1929-May-28 09:45 00:04 Jupiter 1.97307264199096 1.97307105690479 1.97307422708947 4.05850870131576 3.95131758883418 2425759.906536479 3.96483405661493 296.130949574994 36.6228915582821 76.8625586554019 2107825.06846129 T 12 CATAB v2.0f-lin.ifort 2019-Sep-24 03:51:31 2019-Sep-24 03:51
2010-Nov-10 16:16 < 00:01 Jupiter 1.99707893898195 1.99707814723384 1.99707973073007 3.76139790512612 3.64689632059695 2455511.177455125 0.315979938101455 62.8949607121579 34.5372936541364 -87.885965670316 1709753.11953817 T 12 CATAB v2.0f-lin.ifort 2019-Sep-24 03:51:31 2019-Sep-24 03:51
2035-May-12 11:14 00:01 Jupiter 1.91422574405835 1.91422496238717 1.91422652572997 3.96057814385884 3.8472331112358 2464459.968352924 1.07245505397536 113.08239211896 30.4542722970887 -80.4193352664547 1779273.12220522 T 12 CATAB v2.0f-lin.ifort 2019-Sep-24 03:51:31 2019-Sep-24 03:51
2059-Nov-04 04:04 00:02 Jupiter 1.96181782100188 1.96181701026555 1.96181863174023 4.02098312482748 3.91213464354773 2473401.669353158 2.2893336836851 195.428270652334 31.7147734171898 83.737781492321 1998764.52792615 T 12 CATAB v2.0f-lin.ifort 2019-Sep-24 03:51:31 2019-Sep-24 03:51
2165-Oct-18 21:52 00:07 Jupiter 1.91707172020679 1.91707056570075 1.91707287476339 3.97344475106429 3.86064765998269 2512101.410784359 7.22208509549963 630.319391032396 31.1416130969746 -85.728859767083 1809756.35489583 T 12 CATAB v2.0f-lin.ifort 2019-Sep-24 03:51:31 2019-Sep-24 03:51
2190-Apr-14 06:43 00:09 Jupiter 1.95220577786339 1.95220349404753 1.95220806175293 3.98910804599933 3.87881728657733 2521044.780157381 8.50229567433691 649.870398080214 34.0700240046418 80.2776405357508 1961608.18232861 T 12 CATAB v2.0f-lin.ifort 2019-Sep-24 03:51:31 2019-Sep-24 03:51

Alternate Designations
 2006 WL6 = 2004 LX31 = 2005 RA38 
Ephemeris | Orbit Diagram | Orbital Elements | Mission Design | Physical Parameters | Discovery Circumstances | Close-Approach Data ]
ABOUT SSD CREDITS/AWARDS PRIVACY/COPYRIGHT GLOSSARY LINKS
FirstGov 2020-Mar-29 09:15 UT
(server date/time)  
NASA Home Page
Site Manager:   Ryan S. Park
Webmaster  Alan B. Chamberlin